RYR1UL LIEE-LIRA

Flight info

Callsign RYR1UL
Flight time 0h 39m
Altitude 32000
Route KOVAS DCT DEXUL DCT LULIX DCT ROXAN DCT ESINO
Aircraft B738/M-SDE2E3FGHIRWXY/LB1

Departure

Time 2026-05-04 17:58
Airport Cagliari Elmas Airport (LIEE)

Arrival

Time 2026-05-04 18:38
Airport Ciampino–G. B. Pastine International Airport (LIRA)
Time Latitude Longitude Altitude Speed Heading
2026-05-04 17:43 39.25339 9.05838 14 ft 0 kts 142°
2026-05-04 17:50 39.25342 9.05836 15 ft 3 kts 142°
2026-05-04 17:51 39.25362 9.05816 16 ft 2 kts 142°
2026-05-04 17:51 39.25380 9.05800 14 ft 4 kts 165°
2026-05-04 17:51 39.25404 9.05801 14 ft 4 kts 211°
2026-05-04 17:51 39.25422 9.05823 18 ft 4 kts 232°
2026-05-04 17:52 39.25437 9.05847 14 ft 1 kts 232°
2026-05-04 17:54 39.25429 9.05835 15 ft 5 kts 232°
2026-05-04 17:54 39.25408 9.05799 14 ft 5 kts 232°
2026-05-04 17:54 39.25380 9.05754 14 ft 8 kts 232°
2026-05-04 17:54 39.25346 9.05674 14 ft 13 kts 271°
2026-05-04 17:55 39.25391 9.05558 14 ft 17 kts 283°
2026-05-04 17:55 39.25425 9.05396 16 ft 21 kts 294°
2026-05-04 17:55 39.25530 9.05258 14 ft 22 kts 318°
2026-05-04 17:55 39.25642 9.05129 14 ft 21 kts 318°
2026-05-04 17:56 39.25750 9.05003 14 ft 21 kts 318°
2026-05-04 17:56 39.25855 9.04881 14 ft 20 kts 318°
2026-05-04 17:56 39.25957 9.04763 14 ft 19 kts 318°
2026-05-04 17:56 39.26054 9.04649 14 ft 19 kts 318°
2026-05-04 17:57 39.26121 9.04516 14 ft 18 kts 276°
2026-05-04 17:57 39.26077 9.04382 14 ft 18 kts 201°
2026-05-04 17:57 39.26002 9.04441 14 ft 14 kts 138°
2026-05-04 17:57 39.25857 9.04608 15 ft 58 kts 138°
2026-05-04 17:58 39.25372 9.05168 13 ft 126 kts 138°
2026-05-04 17:58 39.24588 9.06056 219 ft 161 kts 140°
2026-05-04 17:58 39.23768 9.06969 1113 ft 155 kts 140°
2026-05-04 17:58 39.22933 9.07936 1655 ft 171 kts 139°
2026-05-04 17:59 39.21976 9.09043 1998 ft 201 kts 140°
2026-05-04 17:59 39.20865 9.10324 2255 ft 227 kts 139°
2026-05-04 17:59 39.19244 9.14016 2811 ft 268 kts 86°
2026-05-04 18:00 39.19881 9.16270 3487 ft 273 kts 50°
2026-05-04 18:00 39.21291 9.17909 4276 ft 275 kts 36°
2026-05-04 18:00 39.22808 9.19452 5010 ft 282 kts 37°
2026-05-04 18:00 39.24305 9.21084 5736 ft 288 kts 39°
2026-05-04 18:01 39.25841 9.22832 6489 ft 293 kts 40°
2026-05-04 18:01 39.27344 9.24588 7193 ft 298 kts 41°
2026-05-04 18:01 39.28886 9.26419 7907 ft 303 kts 41°
2026-05-04 18:02 39.32008 9.30184 9395 ft 312 kts 42°
2026-05-04 18:02 39.33597 9.32118 10130 ft 316 kts 42°
2026-05-04 18:02 39.35230 9.34113 10522 ft 333 kts 42°
2026-05-04 18:02 39.36972 9.36247 10741 ft 355 kts 43°
2026-05-04 18:03 39.38782 9.38470 11267 ft 364 kts 43°
2026-05-04 18:03 39.40600 9.40708 11961 ft 367 kts 43°
2026-05-04 18:03 39.42455 9.42994 12729 ft 369 kts 43°
2026-05-04 18:03 39.44322 9.45298 13462 ft 373 kts 43°
2026-05-04 18:04 39.46207 9.47626 14165 ft 377 kts 43°
2026-05-04 18:04 39.48106 9.49974 14918 ft 378 kts 43°
2026-05-04 18:04 39.51972 9.54760 16156 ft 390 kts 43°
2026-05-04 18:05 39.53943 9.57201 16804 ft 394 kts 43°
2026-05-04 18:05 39.55936 9.59672 17459 ft 398 kts 43°
2026-05-04 18:05 39.57945 9.62165 18145 ft 402 kts 42°
2026-05-04 18:05 39.59947 9.64652 18732 ft 406 kts 42°
2026-05-04 18:06 39.64053 9.69758 19909 ft 411 kts 42°
2026-05-04 18:06 39.66121 9.72334 20470 ft 415 kts 42°
2026-05-04 18:06 39.68214 9.74942 21016 ft 418 kts 42°
2026-05-04 18:07 39.70318 9.77567 21543 ft 422 kts 41°
2026-05-04 18:07 39.72450 9.80229 22057 ft 426 kts 41°
2026-05-04 18:07 39.74567 9.82874 22552 ft 430 kts 41°
2026-05-04 18:07 39.76728 9.85577 23036 ft 434 kts 41°
2026-05-04 18:08 39.78916 9.88317 23511 ft 438 kts 41°
2026-05-04 18:08 39.81116 9.91073 23929 ft 442 kts 41°
2026-05-04 18:08 39.83339 9.93862 24376 ft 444 kts 41°
2026-05-04 18:08 39.85567 9.96660 24844 ft 446 kts 41°
2026-05-04 18:09 39.90045 10.02293 25696 ft 450 kts 41°
2026-05-04 18:09 39.94540 10.07955 26500 ft 455 kts 41°
2026-05-04 18:10 39.96824 10.10836 26896 ft 458 kts 41°
2026-05-04 18:10 39.99112 10.13726 27288 ft 460 kts 41°
2026-05-04 18:10 40.01413 10.16636 27688 ft 462 kts 41°
2026-05-04 18:10 40.03722 10.19557 28065 ft 464 kts 41°
2026-05-04 18:11 40.06045 10.22500 28424 ft 466 kts 41°
2026-05-04 18:11 40.08378 10.25457 28791 ft 469 kts 41°
2026-05-04 18:11 40.10717 10.28426 29194 ft 469 kts 41°
2026-05-04 18:11 40.13026 10.31362 29689 ft 468 kts 41°
2026-05-04 18:12 40.15349 10.34319 30226 ft 465 kts 40°
2026-05-04 18:12 40.17663 10.37266 30650 ft 464 kts 40°
2026-05-04 18:12 40.19974 10.40211 31017 ft 464 kts 40°
2026-05-04 18:12 40.22285 10.43159 31376 ft 464 kts 40°
2026-05-04 18:13 40.24595 10.46108 31767 ft 463 kts 40°
2026-05-04 18:13 40.26898 10.49051 32066 ft 464 kts 40°
2026-05-04 18:13 40.31577 10.55034 32082 ft 476 kts 40°
2026-05-04 18:14 40.33923 10.58040 32085 ft 478 kts 40°
2026-05-04 18:14 40.38677 10.64148 32079 ft 479 kts 40°
2026-05-04 18:15 40.48166 10.76378 32084 ft 477 kts 40°
2026-05-04 18:16 40.52866 10.82451 32081 ft 476 kts 40°
2026-05-04 18:16 40.57576 10.88550 32088 ft 475 kts 40°
2026-05-04 18:17 40.64613 10.97687 32089 ft 473 kts 40°
2026-05-04 18:18 40.71632 11.06829 32096 ft 473 kts 40°
2026-05-04 18:18 40.76272 11.12878 32094 ft 473 kts 40°
2026-05-04 18:19 40.83306 11.22059 31764 ft 478 kts 38°
2026-05-04 18:19 40.85818 11.24910 31370 ft 474 kts 34°
2026-05-04 18:19 40.88408 11.27588 30936 ft 472 kts 32°
2026-05-04 18:20 40.91000 11.30174 30515 ft 474 kts 32°
2026-05-04 18:20 40.93639 11.32798 30065 ft 476 kts 32°
2026-05-04 18:20 40.96276 11.35449 29557 ft 478 kts 33°
2026-05-04 18:20 40.98904 11.38129 29060 ft 477 kts 33°
2026-05-04 18:21 41.01523 11.40829 28586 ft 477 kts 33°
2026-05-04 18:21 41.04139 11.43542 28131 ft 478 kts 33°
2026-05-04 18:21 41.06758 11.46267 27651 ft 479 kts 34°
2026-05-04 18:21 41.09374 11.48994 27179 ft 479 kts 34°
2026-05-04 18:22 41.11989 11.51721 26719 ft 478 kts 34°
2026-05-04 18:22 41.14570 11.54414 26262 ft 478 kts 34°
2026-05-04 18:22 41.17178 11.57137 25797 ft 477 kts 34°
2026-05-04 18:22 41.19755 11.59832 25324 ft 467 kts 34°
2026-05-04 18:23 41.22288 11.62484 24871 ft 460 kts 35°
2026-05-04 18:23 41.24780 11.65094 24430 ft 452 kts 35°
2026-05-04 18:23 41.27232 11.67663 23990 ft 445 kts 35°
2026-05-04 18:23 41.29648 11.70196 23531 ft 439 kts 36°
2026-05-04 18:24 41.32027 11.72693 23024 ft 432 kts 36°
2026-05-04 18:24 41.34335 11.75117 22383 ft 425 kts 36°
2026-05-04 18:24 41.36651 11.77552 21492 ft 422 kts 36°
2026-05-04 18:24 41.38950 11.79970 20566 ft 421 kts 36°
2026-05-04 18:25 41.41244 11.82384 19721 ft 419 kts 36°
2026-05-04 18:25 41.43524 11.84782 18941 ft 415 kts 36°
2026-05-04 18:25 41.45776 11.87153 18164 ft 411 kts 36°
2026-05-04 18:25 41.48011 11.89509 17359 ft 406 kts 36°
2026-05-04 18:26 41.50207 11.91828 16613 ft 399 kts 36°
2026-05-04 18:26 41.52369 11.94111 15868 ft 393 kts 36°
2026-05-04 18:26 41.54469 11.96331 15144 ft 388 kts 36°
2026-05-04 18:26 41.56571 11.98553 14423 ft 383 kts 36°
2026-05-04 18:27 41.58646 12.00750 13699 ft 378 kts 36°
2026-05-04 18:27 41.60694 12.02917 12921 ft 373 kts 37°
2026-05-04 18:27 41.62716 12.05050 12162 ft 369 kts 37°
2026-05-04 18:27 41.64715 12.07159 11403 ft 365 kts 37°
2026-05-04 18:28 41.66697 12.09251 10777 ft 359 kts 38°
2026-05-04 18:28 41.68572 12.11232 10646 ft 338 kts 38°
2026-05-04 18:28 41.70364 12.13130 10511 ft 320 kts 38°
2026-05-04 18:28 41.72063 12.14929 10364 ft 304 kts 38°
2026-05-04 18:29 41.73705 12.16667 9956 ft 300 kts 38°
2026-05-04 18:29 41.75336 12.18397 9431 ft 299 kts 38°
2026-05-04 18:29 41.76959 12.20118 8960 ft 296 kts 39°
2026-05-04 18:29 41.78563 12.21821 8498 ft 293 kts 39°
2026-05-04 18:30 41.81688 12.25291 7524 ft 290 kts 44°
2026-05-04 18:30 41.83116 12.27130 7098 ft 287 kts 46°
2026-05-04 18:30 41.84540 12.28999 6660 ft 286 kts 46°
2026-05-04 18:31 41.85943 12.30830 6430 ft 273 kts 46°
2026-05-04 18:31 41.87261 12.32537 6308 ft 254 kts 46°
2026-05-04 18:31 41.88511 12.34150 5878 ft 248 kts 46°
2026-05-04 18:31 41.89754 12.35753 5393 ft 246 kts 46°
2026-05-04 18:32 41.90988 12.37341 4910 ft 245 kts 46°
2026-05-04 18:32 41.92210 12.38911 4399 ft 241 kts 46°
2026-05-04 18:32 41.93418 12.40464 3848 ft 240 kts 46°
2026-05-04 18:32 41.94595 12.41978 3496 ft 230 kts 46°
2026-05-04 18:33 41.95704 12.43397 3366 ft 211 kts 46°
2026-05-04 18:33 41.96555 12.44914 3039 ft 198 kts 72°
2026-05-04 18:33 41.96588 12.46717 2998 ft 196 kts 114°
2026-05-04 18:33 41.95730 12.48039 3017 ft 186 kts 146°
2026-05-04 18:34 41.94650 12.48950 2990 ft 181 kts 150°
2026-05-04 18:34 41.93602 12.49866 2982 ft 179 kts 148°
2026-05-04 18:34 41.92536 12.50733 2941 ft 181 kts 152°
2026-05-04 18:34 41.91419 12.51536 2732 ft 183 kts 153°
2026-05-04 18:35 41.90337 12.52287 2492 ft 171 kts 154°
2026-05-04 18:35 41.89324 12.52988 2274 ft 158 kts 154°
2026-05-04 18:35 41.88364 12.53652 2114 ft 152 kts 154°
2026-05-04 18:35 41.87426 12.54300 1874 ft 149 kts 154°
2026-05-04 18:36 41.86519 12.54927 1669 ft 144 kts 154°
2026-05-04 18:36 41.85622 12.55549 1477 ft 147 kts 154°
2026-05-04 18:36 41.84706 12.56183 1286 ft 149 kts 154°
2026-05-04 18:36 41.83785 12.56820 1078 ft 149 kts 154°
2026-05-04 18:37 41.82862 12.57459 875 ft 150 kts 154°
2026-05-04 18:37 41.81955 12.58084 664 ft 147 kts 155°
2026-05-04 18:37 41.81061 12.58705 499 ft 143 kts 154°
2026-05-04 18:37 41.80199 12.59303 412 ft 125 kts 153°
2026-05-04 18:38 41.79620 12.59700 413 ft 62 kts 153°
2026-05-04 18:38 41.79359 12.59879 414 ft 36 kts 152°
2026-05-04 18:38 41.79208 12.59984 410 ft 22 kts 152°
2026-05-04 18:38 41.79069 12.60051 412 ft 20 kts 208°
2026-05-04 18:39 41.79029 12.59918 406 ft 16 kts 296°
2026-05-04 18:39 41.79122 12.59843 406 ft 15 kts 332°
2026-05-04 18:39 41.79183 12.59800 406 ft 15 kts 332°
2026-05-04 18:39 41.79303 12.59717 406 ft 14 kts 334°
2026-05-04 18:40 41.79389 12.59657 406 ft 14 kts 332°
2026-05-04 18:40 41.79474 12.59598 406 ft 15 kts 333°
2026-05-04 18:40 41.79567 12.59534 406 ft 15 kts 333°
2026-05-04 18:40 41.79657 12.59473 406 ft 14 kts 333°
2026-05-04 18:41 41.79743 12.59413 406 ft 14 kts 332°
2026-05-04 18:41 41.79798 12.59374 403 ft 13 kts 332°
2026-05-04 18:41 41.79887 12.59314 406 ft 16 kts 333°
2026-05-04 18:41 41.80043 12.59208 406 ft 20 kts 331°
2026-05-04 18:42 41.80163 12.59124 406 ft 19 kts 332°
2026-05-04 18:42 41.80144 12.59019 405 ft 14 kts 230°
2026-05-04 18:42 41.80107 12.58970 405 ft 9 kts 181°
2026-05-04 18:42 41.80072 12.59016 405 ft 1 kts 125°
2026-05-04 18:43 41.80068 12.59024 405 ft 1 kts 124°
2026-05-04 18:43 41.80067 12.59025 405 ft 0 kts 124°